Simultaneous Nadir Overpasses (SNOs) Predictions

Prediction of SNOs between NPP and TERRA Satellite Orbit:

Table of predicted SNOs for the next 14.0 days since TLE Epoch: 12/21/2012
Index Date (NPP) Time (NPP) Lat,Lon (NPP) SZA (NPP ) Date (TERRA) Time (TERRA) Lat,Lon (TERRA) SZA (TERRA ) Distance(km) Time Diff (sec)
1 12/22/2012 20:01:43 -68.23, 57.85 88.46 12/22/2012 20:02:38 -68.23, 57.89 88.46 1.40 55
2 12/22/2012 20:52:27 68.09,-134.67 91.41 12/22/2012 20:52:06 68.06,-134.66 91.38 2.95 21
3 12/22/2012 21:42:56 -67.32, 33.59 89.37 12/22/2012 21:41:46 -67.40, 32.21 89.28 59.84 70
4 12/25/2012 12:18:35 -68.16, 173.71 88.57 12/25/2012 12:19:14 -68.15, 173.65 88.59 2.68 39
5 12/25/2012 13:09:19 68.03, -18.81 91.29 12/25/2012 13:08:41 68.05, -18.83 91.31 2.30 38
6 12/28/2012 03:45:03 69.10, 120.93 92.27 12/28/2012 03:46:10 68.98, 122.87 92.13 78.26 67
7 12/28/2012 04:35:29 -68.16, -70.51 88.68 12/28/2012 04:35:53 -68.16, -70.50 88.69 0.65 24
8 12/28/2012 05:26:13 68.03, 96.97 91.18 12/28/2012 05:25:20 68.05, 97.01 91.20 3.09 53
9 12/30/2012 20:01:49 68.68,-122.72 91.69 12/30/2012 20:03:00 68.55,-121.83 91.54 38.76 71
10 12/30/2012 20:52:22 -68.12, 45.32 88.89 12/30/2012 20:52:36 -68.13, 45.29 88.88 1.66 14
11 12/30/2012 21:43:06 67.99,-147.20 90.98 12/30/2012 21:42:04 67.97,-147.26 90.95 3.43 62
12 01/02/2013 12:18:38 68.44, -6.62 91.22 01/02/2013 12:19:49 68.38, -6.24 91.15 17.10 71
13 01/02/2013 13:09:16 -68.15, 161.07
